GW1708 Weather Reports


time (UTC)temp
C
wind
direction
speed
KPH
gust
KPH
rain 1hr
cm
rain 24hr
cm
rain mn
cm
humidity
%
barometer
mb
20260507114604 11 222 0.0 4.8 0.00 0.00 0.00 87 832.9
20260507113103 12 214 0.0 0.0 0.00 0.00 0.00 86 833.1
20260507111545 12 236 0.0 0.0 0.00 0.00 0.00 86 833.2
20260507110040 12 238 0.0 0.0 0.00 0.00 0.00 87 833.3
20260507104542 12 222 0.0 0.0 0.00 0.00 0.00 88 833.5
20260507103045 12 222 0.0 0.0 0.00 0.00 0.00 88 833.6
20260507101534 12 223 0.0 0.0 0.00 0.00 0.00 86 833.7
20260507100031 12 222 0.0 0.0 0.00 0.00 0.00 85 833.8
20260507094534 12 234 0.0 0.0 0.00 0.00 0.00 85 833.8
20260507093035 12 233 0.0 0.0 0.00 0.00 0.00 85 833.9
20260507091536 12 232 0.0 14.5 0.00 0.00 0.00 85 833.9
20260507090029 12 221 1.6 16.1 0.00 0.00 0.00 85 834.0
20260507084540 12 226 0.0 1.6 0.00 0.00 0.00 85 834.1
20260507083030 12 213 3.2 14.5 0.00 0.00 0.00 85 834.0
20260507081536 12 232 8.0 16.1 0.00 0.00 0.00 85 834.1
20260507080029 12 231 1.6 16.1 0.00 0.00 0.00 85 834.0
20260507074531 12 225 12.9 16.1 0.00 0.00 0.00 85 834.1
20260507073027 12 233 12.9 16.1 0.00 0.00 0.00 85 834.1
20260507071525 12 231 11.3 14.5 0.00 0.00 0.00 85 833.9
20260507070024 12 229 12.9 16.1 0.00 0.00 0.00 85 833.8
20260507064522 12 230 12.9 17.7 0.00 0.00 0.00 88 833.6
20260507063024 12 235 0.0 0.0 0.00 0.00 0.00 92 833.4
20260507061521 12 224 1.6 17.7 0.00 0.00 0.00 93 833.3
20260507060020 12 245 0.0 3.2 0.00 0.00 0.00 96 833.2
20260507054520 12 286 0.0 0.0 0.00 0.00 0.00 100 833.1
20260507053020 13 286 0.0 0.0 0.00 0.00 0.00 100 833.0
20260507051519 13 286 0.0 0.0 0.00 0.00 0.00 100 833.0
20260507050025 13 286 0.0 0.0 0.00 0.00 0.00 98 832.8
20260507044518 13 216 0.0 0.0 0.00 0.00 0.00 100 832.6
20260507043024 13 217 0.0 0.0 0.00 0.00 0.00 100 832.5
20260507041517 13 214 0.0 0.0 0.00 0.00 0.00 99 832.3
20260507040017 13 223 0.0 3.2 0.00 0.00 0.00 98 832.3
20260507034522 14 177 0.0 0.0 0.00 0.00 0.00 97 832.2
20260507033016 14 207 0.0 0.0 0.00 0.00 0.00 97 832.3
20260507031518 13 203 0.0 3.2 0.00 0.00 0.00 97 832.2
20260507030015 13 228 0.0 0.0 0.00 0.00 0.00 99 832.2
20260507024519 13 184 0.0 0.0 0.00 0.00 0.00 99 832.1
20260507023014 13 177 0.0 0.0 0.00 0.00 0.00 100 832.0
20260507021513 13 202 0.0 0.0 0.00 0.00 0.00 100 832.0
20260507020018 13 165 0.0 0.0 0.00 0.00 0.00 100 832.1
20260507014513 13 165 0.0 0.0 0.00 0.00 0.00 99 832.1
20260507013017 14 229 0.0 8.0 0.00 0.00 0.00 98 832.0
20260507011513 15 219 0.0 12.9 0.00 0.00 0.00 94 832.2
20260507010012 15 167 0.0 0.0 0.00 0.00 0.00 94 832.2
20260507004512 15 145 0.0 0.0 0.00 0.00 0.00 97 832.2
20260507003011 14 192 0.0 1.6 0.00 0.00 0.00 97 832.5
20260507001533 15 153 0.0 9.7 0.00 0.00 0.00 97 832.5
20260507000014 14 157 0.0 4.8 0.00 0.00 0.00 97 832.5
20260506234509 15 183 0.0 0.0 0.00 0.00 0.00 95 832.7
20260506233009 15 188 0.0 1.6 0.00 0.00 0.00 95 832.7
20260506231508 15 183 0.0 0.0 0.00 0.00 0.00 97 832.7
20260506230007 14 136 0.0 0.0 0.00 0.00 0.00 98 832.9
20260506224508 14 146 0.0 0.0 0.00 0.00 0.00 98 833.1
20260506223007 14 192 0.0 0.0 0.00 0.00 0.00 98 833.0
20260506221506 13 207 0.0 0.0 0.00 0.00 0.00 99 833.2
20260506220006 13 169 0.0 0.0 0.00 0.00 0.00 97 832.9
20260506214505 14 217 0.0 0.0 0.00 0.00 0.00 96 833.1
20260506213005 14 228 0.0 0.0 0.00 0.00 0.00 95 833.3
20260506211504 14 183 0.0 0.0 0.00 0.00 0.00 94 833.5
20260506210007 15 237 0.0 0.0 0.00 0.00 0.00 94 833.4
20260506204504 15 180 0.0 3.2 0.00 0.00 0.00 91 833.3
20260506203003 16 217 0.0 1.6 0.00 0.00 0.00 87 833.4
20260506201503 16 251 0.0 0.0 0.00 0.00 0.00 84 833.5
20260506200000 16 136 0.0 4.8 0.00 0.00 0.00 88 833.4
20260506194605 15 193 0.0 0.0 0.00 0.00 0.00 85 833.2
20260506193106 16 196 0.0 9.7 0.00 0.00 0.00 81 833.2
20260506191557 16 153 0.0 0.0 0.00 0.00 0.00 79 833.2
20260506190056 15 282 0.0 0.0 0.00 0.00 0.00 81 833.3
20260506184555 15 273 0.0 0.0 0.00 0.00 0.00 84 833.3
20260506183103 15 280 0.0 0.0 0.00 0.00 0.00 83 833.2
20260506181555 15 217 0.0 0.0 0.00 0.00 0.00 80 833.4
20260506180052 14 168 0.0 0.0 0.00 0.00 0.00 79 833.2
20260506174547 13 213 0.0 0.0 0.00 0.00 0.00 84 833.1
20260506173048 12 225 0.0 1.6 0.00 0.00 0.00 85 832.7
20260506171544 12 225 0.0 0.0 0.00 0.00 0.00 77 832.5
20260506170046 12 212 0.0 0.0 0.00 0.00 0.00 79 832.3
20260506164554 11 218 0.0 0.0 0.00 0.00 0.00 93 832.2
20260506163042 11 200 0.0 0.0 0.00 0.00 0.00 92 832.0
20260506161537 11 294 0.0 0.0 0.00 0.00 0.00 91 832.0
20260506160037 11 294 0.0 0.0 0.00 0.00 0.00 93 831.8
20260506154536 10 294 0.0 0.0 0.00 0.00 0.00 93 831.7
20260506153035 11 294 0.0 0.0 0.00 0.00 0.00 94 831.7
20260506151537 11 294 0.0 0.0 0.00 0.00 0.00 95 831.6
20260506150035 11 294 0.0 0.0 0.00 0.00 0.00 96 831.5
20260506144533 11 294 0.0 0.0 0.00 0.00 0.00 94 831.7
20260506143038 11 294 0.0 0.0 0.00 0.00 0.00 93 831.5
20260506141540 10 294 0.0 0.0 0.00 0.00 0.00 95 831.5
20260506140032 11 294 0.0 0.0 0.00 0.00 0.00 96 831.6
20260506134529 11 294 0.0 0.0 0.00 0.00 0.00 96 831.5
20260506133029 11 294 0.0 0.0 0.00 0.00 0.00 97 831.6
20260506131527 11 294 0.0 0.0 0.00 0.00 0.00 98 831.6
20260506130026 11 294 0.0 0.0 0.00 0.00 0.00 99 831.6
20260506124526 11 294 0.0 0.0 0.00 0.00 0.00 100 831.7
20260506123024 11 294 0.0 0.0 0.00 0.00 0.00 100 831.8
20260506121523 11 294 0.0 0.0 0.00 0.00 0.00 100 831.8
20260506120041 11 294 0.0 0.0 0.00 0.00 0.00 100 831.7